| time (UTC) | temp F | wind direction | speed MPH | gust MPH | rain 1hr in | rain 24hr in | rain mn in | humidity % | barometer mb |
| 20260510013050 | 61 | 322 | 0.0 | 7.0 | 0.00 | 0.00 | 0.00 | 28 | 1015.4 |
| 20260510011545 | 61 | 325 | 1.0 | 6.0 | 0.00 | 0.00 | 0.00 | 26 | 1015.6 |
| 20260510010042 | 62 | 321 | 1.0 | 5.0 | 0.00 | 0.00 | 0.00 | 26 | 1015.5 |
| 20260510004542 | 62 | 336 | 0.0 | 6.0 | 0.00 | 0.00 | 0.00 | 25 | 1015.4 |
| 20260510003052 | 62 | 288 | 1.0 | 6.0 | 0.00 | 0.00 | 0.00 | 25 | 1015.5 |
| 20260510001540 | 62 | 301 | 1.0 | 6.0 | 0.00 | 0.00 | 0.00 | 25 | 1015.5 |
| 20260510000040 | 61 | 292 | 2.0 | 5.0 | 0.00 | 0.00 | 0.00 | 25 | 1015.6 |
| 20260509234556 | 62 | 345 | 1.0 | 4.0 | 0.00 | 0.00 | 0.00 | 24 | 1015.6 |
| 20260509233045 | 62 | 259 | 2.0 | 11.0 | 0.00 | 0.00 | 0.00 | 23 | 1015.7 |
| 20260509231557 | 62 | 56 | 2.0 | 9.0 | 0.00 | 0.00 | 0.00 | 23 | 1015.6 |
| 20260509230038 | 62 | 116 | 1.0 | 7.0 | 0.00 | 0.00 | 0.00 | 24 | 1015.6 |
| 20260509224537 | 61 | 215 | 1.0 | 5.0 | 0.00 | 0.00 | 0.00 | 25 | 1015.6 |
| 20260509223037 | 62 | 256 | 2.0 | 8.0 | 0.00 | 0.00 | 0.00 | 23 | 1015.7 |
| 20260509221535 | 62 | 304 | 2.0 | 5.0 | 0.00 | 0.00 | 0.00 | 24 | 1015.9 |
| 20260509220038 | 62 | 265 | 2.0 | 8.0 | 0.00 | 0.00 | 0.00 | 23 | 1015.7 |
| 20260509214534 | 62 | 303 | 1.0 | 6.0 | 0.00 | 0.00 | 0.00 | 24 | 1015.9 |
| 20260509213033 | 62 | 302 | 1.0 | 10.0 | 0.00 | 0.00 | 0.00 | 26 | 1016.0 |
| 20260509211533 | 62 | 198 | 1.0 | 9.0 | 0.00 | 0.00 | 0.00 | 24 | 1016.1 |
| 20260509210031 | 62 | 351 | 2.0 | 7.0 | 0.00 | 0.00 | 0.00 | 26 | 1016.0 |
| 20260509204534 | 62 | 355 | 2.0 | 5.0 | 0.00 | 0.00 | 0.00 | 25 | 1016.1 |
| 20260509203035 | 61 | 226 | 1.0 | 7.0 | 0.00 | 0.00 | 0.00 | 27 | 1016.1 |
| 20260509201528 | 61 | 340 | 2.0 | 8.0 | 0.00 | 0.00 | 0.00 | 28 | 1016.3 |
| 20260509200026 | 61 | 327 | 2.0 | 8.0 | 0.00 | 0.00 | 0.00 | 28 | 1016.3 |
| 20260509194525 | 60 | 344 | 3.0 | 8.0 | 0.00 | 0.00 | 0.00 | 27 | 1016.4 |
| 20260509193022 | 59 | 310 | 2.0 | 5.0 | 0.00 | 0.00 | 0.00 | 26 | 1016.3 |
| 20260509191520 | 59 | 321 | 3.0 | 9.0 | 0.00 | 0.00 | 0.00 | 25 | 1016.6 |
| 20260509190019 | 58 | 210 | 1.0 | 6.0 | 0.00 | 0.00 | 0.00 | 29 | 1016.5 |
| 20260509184526 | 58 | 296 | 0.0 | 7.0 | 0.00 | 0.00 | 0.00 | 31 | 1016.6 |
| 20260509183027 | 57 | 332 | 1.0 | 8.0 | 0.00 | 0.00 | 0.00 | 30 | 1016.6 |
| 20260509181517 | 57 | 275 | 2.0 | 8.0 | 0.00 | 0.00 | 0.00 | 31 | 1016.6 |
| 20260509180018 | 57 | 289 | 2.0 | 9.0 | 0.00 | 0.00 | 0.00 | 33 | 1016.5 |
| 20260509174510 | 55 | 360 | 2.0 | 8.0 | 0.00 | 0.00 | 0.00 | 32 | 1016.5 |
| 20260509173014 | 55 | 360 | 1.0 | 6.0 | 0.00 | 0.00 | 0.00 | 35 | 1016.6 |
| 20260509171507 | 53 | 360 | 2.0 | 6.0 | 0.00 | 0.00 | 0.00 | 34 | 1016.5 |
| 20260509170002 | 52 | 313 | 0.0 | 4.0 | 0.00 | 0.00 | 0.00 | 38 | 1016.6 |
| 20260509164557 | 51 | 313 | 1.0 | 5.0 | 0.00 | 0.00 | 0.00 | 40 | 1016.7 |
| 20260509163103 | 50 | 274 | 0.0 | 4.0 | 0.00 | 0.00 | 0.00 | 42 | 1016.8 |
| 20260509161555 | 48 | 255 | 1.0 | 5.0 | 0.00 | 0.00 | 0.00 | 47 | 1016.9 |
| 20260509160046 | 46 | 360 | 0.0 | 4.0 | 0.00 | 0.00 | 0.00 | 51 | 1017.1 |
| 20260509154542 | 44 | 319 | 1.0 | 3.0 | 0.00 | 0.00 | 0.00 | 58 | 1017.2 |
| 20260509153042 | 41 | 169 | 0.0 | 3.0 | 0.00 | 0.00 | 0.00 | 64 | 1017.3 |
| 20260509151540 | 38 | 165 | 0.0 | 2.0 | 0.00 | 0.00 | 0.00 | 68 | 1017.5 |
| 20260509150037 | 35 | 166 | 0.0 | 1.0 | 0.00 | 0.00 | 0.00 | 73 | 1017.5 |
| 20260509144536 | 33 | 360 | 0.0 | 2.0 | 0.00 | 0.00 | 0.00 | 76 | 1017.6 |
| 20260509143046 | 31 | 360 | 0.0 | 1.0 | 0.00 | 0.00 | 0.00 | 81 | 1017.5 |
| 20260509141535 | 29 | 132 | 0.0 | 1.0 | 0.00 | 0.00 | 0.00 | 82 | 1017.6 |
| 20260509140033 | 26 | 133 | 0.0 | 1.0 | 0.00 | 0.00 | 0.00 | 86 | 1017.6 |
| 20260509134533 | 25 | 133 | 0.0 | 2.0 | 0.00 | 0.00 | 0.00 | 84 | 1017.7 |
| 20260509133030 | 25 | 133 | 0.0 | 1.0 | 0.00 | 0.00 | 0.00 | 83 | 1017.5 |
| 20260509131528 | 25 | 133 | 0.0 | 2.0 | 0.00 | 0.00 | 0.00 | 82 | 1017.4 |
| 20260509130029 | 25 | 132 | 0.0 | 1.0 | 0.00 | 0.00 | 0.00 | 82 | 1017.1 |
| 20260509124535 | 25 | 132 | 0.0 | 2.0 | 0.00 | 0.00 | 0.00 | 82 | 1017.0 |
| 20260509123021 | 26 | 132 | 0.0 | 3.0 | 0.00 | 0.00 | 0.00 | 81 | 1016.8 |
| 20260509121533 | 26 | 148 | 0.0 | 1.0 | 0.00 | 0.00 | 0.00 | 80 | 1016.7 |
| 20260509120018 | 27 | 148 | 0.0 | 2.0 | 0.00 | 0.00 | 0.00 | 80 | 1016.6 |
| 20260509114537 | 27 | 148 | 0.0 | 1.0 | 0.00 | 0.00 | 0.00 | 80 | 1016.6 |
| 20260509113017 | 27 | 148 | 0.0 | 1.0 | 0.00 | 0.00 | 0.00 | 81 | 1016.5 |
| 20260509111514 | 26 | 148 | 0.0 | 2.0 | 0.00 | 0.00 | 0.00 | 80 | 1016.4 |
| 20260509110015 | 27 | 148 | 0.0 | 2.0 | 0.00 | 0.00 | 0.00 | 78 | 1016.2 |
| 20260509104515 | 27 | 148 | 1.0 | 3.0 | 0.00 | 0.00 | 0.00 | 79 | 1016.2 |
| 20260509103009 | 27 | 131 | 0.0 | 4.0 | 0.00 | 0.00 | 0.00 | 79 | 1016.0 |
| 20260509101507 | 28 | 131 | 0.0 | 2.0 | 0.00 | 0.00 | 0.00 | 78 | 1015.9 |
| 20260509100004 | 29 | 139 | 0.0 | 1.0 | 0.00 | 0.00 | 0.00 | 75 | 1015.6 |
| 20260509094604 | 30 | 164 | 0.0 | 2.0 | 0.00 | 0.00 | 0.00 | 74 | 1015.5 |
| 20260509093057 | 30 | 163 | 0.0 | 2.0 | 0.00 | 0.00 | 0.00 | 73 | 1015.4 |
| 20260509091559 | 31 | 164 | 0.0 | 1.0 | 0.00 | 0.00 | 0.00 | 72 | 1015.1 |
| 20260509084549 | 32 | 166 | 0.0 | 1.0 | 0.00 | 0.00 | 0.00 | 69 | 1015.0 |
| 20260509083051 | 33 | 167 | 0.0 | 3.0 | 0.00 | 0.00 | 0.00 | 67 | 1014.7 |
| 20260509081542 | 34 | 168 | 0.0 | 1.0 | 0.00 | 0.00 | 0.00 | 66 | 1014.7 |
| 20260509080055 | 35 | 169 | 0.0 | 1.0 | 0.00 | 0.00 | 0.00 | 63 | 1014.8 |
| 20260509074540 | 36 | 360 | 0.0 | 1.0 | 0.00 | 0.00 | 0.00 | 62 | 1014.6 |
| 20260509073036 | 36 | 360 | 0.0 | 2.0 | 0.00 | 0.00 | 0.00 | 62 | 1014.6 |
| 20260509071533 | 36 | 148 | 0.0 | 4.0 | 0.00 | 0.00 | 0.00 | 61 | 1014.5 |
| 20260509070035 | 38 | 349 | 0.0 | 2.0 | 0.00 | 0.00 | 0.00 | 58 | 1014.3 |
| 20260509064527 | 39 | 336 | 0.0 | 1.0 | 0.00 | 0.00 | 0.00 | 56 | 1014.2 |
| 20260509063023 | 40 | 342 | 0.0 | 2.0 | 0.00 | 0.00 | 0.00 | 55 | 1013.9 |
| 20260509061521 | 41 | 109 | 0.0 | 1.0 | 0.00 | 0.00 | 0.00 | 52 | 1014.1 |
| 20260509060021 | 41 | 112 | 0.0 | 1.0 | 0.00 | 0.00 | 0.00 | 53 | 1014.1 |
| 20260509054518 | 42 | 74 | 0.0 | 1.0 | 0.00 | 0.00 | 0.00 | 50 | 1014.0 |
| 20260509053029 | 43 | 11 | 0.0 | 1.0 | 0.00 | 0.00 | 0.00 | 49 | 1014.1 |
| 20260509051517 | 43 | 11 | 1.0 | 3.0 | 0.00 | 0.00 | 0.00 | 47 | 1014.0 |
| 20260509050037 | 43 | 15 | 0.0 | 2.0 | 0.00 | 0.00 | 0.00 | 49 | 1014.0 |
| 20260509044517 | 43 | 355 | 0.0 | 2.0 | 0.00 | 0.00 | 0.00 | 48 | 1014.0 |
| 20260509043031 | 44 | 34 | 0.0 | 2.0 | 0.00 | 0.00 | 0.00 | 48 | 1013.8 |
| 20260509041516 | 44 | 33 | 0.0 | 1.0 | 0.00 | 0.00 | 0.00 | 48 | 1013.9 |
| 20260509040015 | 45 | 22 | 0.0 | 2.0 | 0.00 | 0.00 | 0.00 | 48 | 1013.8 |
| 20260509034516 | 46 | 28 | 0.0 | 2.0 | 0.00 | 0.00 | 0.00 | 47 | 1013.6 |
| 20260509033019 | 47 | 360 | 0.0 | 2.0 | 0.00 | 0.00 | 0.00 | 44 | 1013.3 |
| 20260509031514 | 50 | 84 | 0.0 | 1.0 | 0.00 | 0.00 | 0.00 | 42 | 1013.1 |
| 20260509030019 | 52 | 360 | 0.0 | 2.0 | 0.00 | 0.00 | 0.00 | 38 | 1012.8 |
| 20260509024513 | 53 | 323 | 0.0 | 3.0 | 0.00 | 0.00 | 0.00 | 36 | 1012.4 |
| 20260509023013 | 54 | 360 | 1.0 | 12.0 | 0.00 | 0.00 | 0.00 | 34 | 1012.3 |
| 20260509021512 | 55 | 302 | 2.0 | 6.0 | 0.00 | 0.00 | 0.00 | 32 | 1012.0 |
| 20260509020012 | 56 | 304 | 2.0 | 6.0 | 0.00 | 0.00 | 0.00 | 30 | 1011.8 |
| 20260509014512 | 56 | 321 | 1.0 | 7.0 | 0.00 | 0.00 | 0.00 | 31 | 1011.6 |